Simultaneous Nadir Overpasses (SNOs) Predictions

Prediction of SNOs between NOAA-20 and AQUA Satellite Orbit:

Table of predicted SNOs for the next 14.0 days since TLE Epoch: 9/21/2024
Index Date (NOAA-20) Time (NOAA-20) Lat,Lon (NOAA-20) SZA (NOAA-20 ) Date (AQUA) Time (AQUA) Lat,Lon (AQUA) SZA (AQUA ) Distance(km) Time Diff (sec)
1 09/21/2024 03:32:09 81.31, 53.89 86.69 09/21/2024 03:31:59 81.31, 53.96 86.68 1.35 10
2 09/23/2024 14:44:28 81.31,-114.16 87.60 09/23/2024 14:44:58 81.31,-114.16 87.58 0.13 30
3 09/23/2024 15:35:12 -81.32, 53.64 92.46 09/23/2024 15:34:19 -81.31, 53.48 92.41 2.71 53
4 09/26/2024 01:56:46 81.31, 77.69 88.53 09/26/2024 01:57:54 81.32, 77.78 88.48 1.62 68
5 09/26/2024 02:47:30 -81.32,-114.51 91.53 09/26/2024 02:47:15 -81.32,-114.56 91.51 0.85 15
6 09/28/2024 13:59:49 -81.32, 77.25 90.59 09/28/2024 14:00:11 -81.31, 77.07 90.58 3.06 22
7 09/28/2024 14:50:33 81.32,-115.25 89.41 09/28/2024 14:49:31 81.32,-115.08 89.42 2.97 62
8 10/01/2024 01:12:07 -81.32, -90.69 89.69 10/01/2024 01:13:04 -81.32, -90.85 89.70 2.71 57
9 10/01/2024 02:02:52 81.32, 76.41 90.36 10/01/2024 02:02:25 81.31, 76.57 90.35 2.69 27



Historial Predications of SNOs between NOAA-20 and AQUA
